Time,TemperatureF,DewpointF,PressureIn,WindDirection,WindDirectionDegrees,WindSpeedMPH,WindSpeedGustMPH,Humidity,HourlyPrecipIn,Conditions,Clouds,dailyrainin,SoftwareType,DateUTC
2013-06-01 00:02:00,69.0,68.0,-100.00,North,5,8.0,10.0,95,-99.99,,,-99.99,,2013-06-01 05:02:00,
2013-06-01 00:12:00,69.0,67.0,-100.00,North,10,6.0,11.0,95,-99.99,,,-99.99,,2013-06-01 05:12:00,
2013-06-01 00:22:00,69.0,67.0,-100.00,North,10,6.0,11.0,95,-99.99,,,-99.99,,2013-06-01 05:22:00,
2013-06-01 00:32:00,69.0,67.0,-100.00,North,5,4.0,8.0,95,-99.99,,,-99.99,,2013-06-01 05:32:00,
2013-06-01 00:42:00,68.0,66.0,-100.00,North,5,4.0,9.0,93,-99.99,,,-99.99,,2013-06-01 05:42:00,
2013-06-01 00:52:00,68.0,66.0,-100.00,North,5,4.0,9.0,93,-99.99,,,-99.99,,2013-06-01 05:52:00,
2013-06-01 01:01:00,68.0,65.0,-100.00,North,5,9.0,11.0,92,-99.99,,,-99.99,,2013-06-01 06:01:00,
2013-06-01 01:12:00,67.0,64.0,-100.00,North,5,10.0,11.0,91,-99.99,,,-99.99,,2013-06-01 06:12:00,
2013-06-01 01:22:00,67.0,64.0,-100.00,North,5,10.0,11.0,91,-99.99,,,-99.99,,2013-06-01 06:22:00,
2013-06-01 01:32:00,67.0,65.0,-100.00,North,5,11.0,14.0,92,-99.99,,,-99.99,,2013-06-01 06:32:00,
2013-06-01 01:42:00,68.0,67.0,-100.00,North,5,14.0,19.0,95,-99.99,,,-99.99,,2013-06-01 06:42:00,
2013-06-01 01:52:00,68.0,67.0,-100.00,North,5,14.0,19.0,95,-99.99,,,-99.99,,2013-06-01 06:52:00,
2013-06-01 02:01:00,68.0,66.0,-100.00,North,5,17.0,23.0,94,-99.99,,,-99.99,,2013-06-01 07:01:00,
2013-06-01 02:11:00,68.0,64.0,-100.00,North,5,16.0,21.0,87,-99.99,,,-99.99,,2013-06-01 07:11:00,
2013-06-01 02:22:00,68.0,64.0,-100.00,North,5,16.0,21.0,87,-99.99,,,-99.99,,2013-06-01 07:22:00,
2013-06-01 02:32:00,68.0,63.0,-100.00,North,5,13.0,19.0,86,-99.99,,,-99.99,,2013-06-01 07:32:00,
2013-06-01 02:42:00,68.0,63.0,-100.00,North,5,13.0,19.0,86,-99.99,,,-99.99,,2013-06-01 07:42:00,
2013-06-01 02:52:00,68.0,63.0,-100.00,North,5,13.0,19.0,86,-99.99,,,-99.99,,2013-06-01 07:52:00,
2013-06-01 03:02:00,67.0,63.0,-100.00,North,5,7.0,15.0,88,-99.99,,,-99.99,,2013-06-01 08:02:00,
2013-06-01 03:11:00,66.0,63.0,-100.00,North,10,8.0,13.0,91,-99.99,,,-99.99,,2013-06-01 08:11:00,
2013-06-01 03:21:00,66.0,63.0,-100.00,North,10,8.0,13.0,91,-99.99,,,-99.99,,2013-06-01 08:21:00,
2013-06-01 03:32:00,66.0,63.0,-100.00,North,5,9.0,14.0,92,-99.99,,,-99.99,,2013-06-01 08:32:00,
2013-06-01 03:42:00,65.0,63.0,-100.00,North,5,8.0,14.0,93,-99.99,,,-99.99,,2013-06-01 08:42:00,
2013-06-01 03:52:00,65.0,63.0,-100.00,North,5,8.0,14.0,93,-99.99,,,-99.99,,2013-06-01 08:52:00,
2013-06-01 04:01:00,65.0,64.0,-100.00,North,10,10.0,14.0,94,-99.99,,,-99.99,,2013-06-01 09:01:00,
2013-06-01 04:12:00,65.0,64.0,-100.00,North,10,9.0,16.0,94,-99.99,,,-99.99,,2013-06-01 09:12:00,
2013-06-01 04:21:00,65.0,64.0,-100.00,North,10,9.0,16.0,94,-99.99,,,-99.99,,2013-06-01 09:21:00,
2013-06-01 04:33:00,65.0,64.0,-100.00,NNE,15,12.0,18.0,94,-99.99,,,-99.99,,2013-06-01 09:33:00,
2013-06-01 04:42:00,65.0,63.0,-100.00,North,10,11.0,16.0,94,-99.99,,,-99.99,,2013-06-01 09:42:00,
2013-06-01 04:53:00,65.0,63.0,-100.00,North,10,11.0,16.0,94,-99.99,,,-99.99,,2013-06-01 09:53:00,
2013-06-01 05:02:00,65.0,63.0,-100.00,North,5,9.0,14.0,94,-99.99,,,-99.99,,2013-06-01 10:02:00,
2013-06-01 05:13:00,65.0,64.0,-100.00,NNE,20,9.0,17.0,95,-99.99,,,-99.99,,2013-06-01 10:13:00,
2013-06-01 05:22:00,65.0,64.0,-100.00,NNE,20,9.0,17.0,95,-99.99,,,-99.99,,2013-06-01 10:22:00,
2013-06-01 05:33:00,65.0,63.0,-100.00,NNE,20,8.0,13.0,94,-99.99,,,-99.99,,2013-06-01 10:33:00,
2013-06-01 05:42:00,65.0,63.0,-100.00,NNE,15,9.0,12.0,94,-99.99,,,-99.99,,2013-06-01 10:42:00,
2013-06-01 05:52:00,65.0,63.0,-100.00,NNE,15,9.0,12.0,94,-99.99,,,-99.99,,2013-06-01 10:52:00,
2013-06-01 06:02:00,65.0,63.0,-100.00,North,10,8.0,15.0,93,-99.99,,,-99.99,,2013-06-01 11:02:00,
2013-06-01 06:11:00,65.0,63.0,-100.00,North,10,7.0,14.0,93,-99.99,,,-99.99,,2013-06-01 11:11:00,
2013-06-01 06:21:00,65.0,63.0,-100.00,North,10,7.0,14.0,93,-99.99,,,-99.99,,2013-06-01 11:21:00,
2013-06-01 06:32:00,65.0,63.0,-100.00,North,10,10.0,14.0,93,-99.99,,,-99.99,,2013-06-01 11:32:00,
2013-06-01 06:42:00,65.0,63.0,-100.00,North,10,9.0,14.0,93,-99.99,,,-99.99,,2013-06-01 11:42:00,
2013-06-01 06:52:00,65.0,63.0,-100.00,North,10,9.0,14.0,93,-99.99,,,-99.99,,2013-06-01 11:52:00,
2013-06-01 07:01:00,65.0,63.0,-100.00,NNE,15,9.0,11.0,93,-99.99,,,-99.99,,2013-06-01 12:01:00,
2013-06-01 07:12:00,65.0,63.0,-100.00,NNE,15,9.0,14.0,93,-99.99,,,-99.99,,2013-06-01 12:12:00,
2013-06-01 07:21:00,65.0,63.0,-100.00,NNE,15,9.0,14.0,93,-99.99,,,-99.99,,2013-06-01 12:21:00,
2013-06-01 07:32:00,65.0,63.0,-100.00,NNE,15,11.0,16.0,93,-99.99,,,-99.99,,2013-06-01 12:32:00,
2013-06-01 07:42:00,65.0,63.0,-100.00,NNE,15,9.0,17.0,93,-99.99,,,-99.99,,2013-06-01 12:42:00,
2013-06-01 07:52:00,65.0,63.0,-100.00,NNE,15,9.0,17.0,93,-99.99,,,-99.99,,2013-06-01 12:52:00,
2013-06-01 08:01:00,65.0,63.0,-100.00,North,5,13.0,18.0,92,-99.99,,,-99.99,,2013-06-01 13:01:00,
2013-06-01 08:11:00,66.0,63.0,-100.00,North,5,16.0,22.0,91,-99.99,,,-99.99,,2013-06-01 13:11:00,
2013-06-01 08:22:00,66.0,63.0,-100.00,North,5,16.0,22.0,91,-99.99,,,-99.99,,2013-06-01 13:22:00,
2013-06-01 08:32:00,66.0,63.0,-100.00,North,5,10.0,19.0,91,-99.99,,,-99.99,,2013-06-01 13:32:00,
2013-06-01 08:42:00,66.0,63.0,-100.00,NNE,20,12.0,19.0,91,-99.99,,,-99.99,,2013-06-01 13:42:00,
2013-06-01 08:52:00,66.0,63.0,-100.00,NNE,20,12.0,19.0,91,-99.99,,,-99.99,,2013-06-01 13:52:00,
2013-06-01 09:02:00,66.0,63.0,-100.00,NNE,20,14.0,21.0,91,-99.99,,,-99.99,,2013-06-01 14:02:00,
2013-06-01 09:11:00,66.0,63.0,-100.00,NNE,15,14.0,22.0,91,-99.99,,,-99.99,,2013-06-01 14:11:00,
2013-06-01 09:21:00,66.0,63.0,-100.00,NNE,15,14.0,22.0,91,-99.99,,,-99.99,,2013-06-01 14:21:00,
2013-06-01 09:32:00,66.0,63.0,-100.00,North,0,14.0,23.0,91,-99.99,,,-99.99,,2013-06-01 14:32:00,
2013-06-01 09:42:00,66.0,63.0,-100.00,North,5,15.0,25.0,91,-99.99,,,-99.99,,2013-06-01 14:42:00,
2013-06-01 09:52:00,66.0,63.0,-100.00,North,5,15.0,25.0,91,-99.99,,,-99.99,,2013-06-01 14:52:00,
2013-06-01 10:02:00,66.0,63.0,-100.00,North,5,19.0,24.0,91,-99.99,,,-99.99,,2013-06-01 15:02:00,
2013-06-01 10:11:00,67.0,63.0,-100.00,North,10,20.0,23.0,87,-99.99,,,-99.99,,2013-06-01 15:11:00,
2013-06-01 10:21:00,67.0,63.0,-100.00,North,10,20.0,23.0,87,-99.99,,,-99.99,,2013-06-01 15:21:00,
2013-06-01 10:33:00,68.0,63.0,-100.00,NNE,15,16.0,26.0,85,-99.99,,,-99.99,,2013-06-01 15:33:00,
2013-06-01 10:43:00,68.0,63.0,-100.00,North,10,19.0,26.0,85,-99.99,,,-99.99,,2013-06-01 15:43:00,
2013-06-01 10:53:00,68.0,63.0,-100.00,North,10,19.0,26.0,85,-99.99,,,-99.99,,2013-06-01 15:53:00,
2013-06-01 11:03:00,68.0,63.0,-100.00,North,5,17.0,26.0,85,-99.99,,,-99.99,,2013-06-01 16:03:00,
2013-06-01 11:12:00,68.0,64.0,-100.00,NNE,15,12.0,20.0,85,-99.99,,,-99.99,,2013-06-01 16:12:00,
2013-06-01 11:23:00,68.0,64.0,-100.00,NNE,15,12.0,20.0,85,-99.99,,,-99.99,,2013-06-01 16:23:00,
2013-06-01 11:33:00,69.0,64.0,-100.00,North,5,16.0,21.0,84,-99.99,,,-99.99,,2013-06-01 16:33:00,
2013-06-01 11:42:00,68.0,63.0,-100.00,North,5,12.0,21.0,85,-99.99,,,-99.99,,2013-06-01 16:42:00,
2013-06-01 11:52:00,68.0,63.0,-100.00,North,5,12.0,21.0,85,-99.99,,,-99.99,,2013-06-01 16:52:00,
2013-06-01 12:02:00,68.0,63.0,-100.00,North,10,13.0,21.0,85,-99.99,,,-99.99,,2013-06-01 17:02:00,
2013-06-01 12:12:00,69.0,64.0,-100.00,North,10,14.0,19.0,84,-99.99,,,-99.99,,2013-06-01 17:12:00,
2013-06-01 12:22:00,69.0,64.0,-100.00,North,10,14.0,19.0,84,-99.99,,,-99.99,,2013-06-01 17:22:00,
2013-06-01 12:32:00,68.0,63.0,-100.00,North,10,13.0,18.0,84,-99.99,,,-99.99,,2013-06-01 17:32:00,
2013-06-01 12:42:00,69.0,63.0,-100.00,North,10,16.0,21.0,82,-99.99,,,-99.99,,2013-06-01 17:42:00,
2013-06-01 12:52:00,69.0,63.0,-100.00,North,10,16.0,21.0,82,-99.99,,,-99.99,,2013-06-01 17:52:00,
2013-06-01 13:01:00,69.0,64.0,-100.00,North,10,14.0,19.0,82,-99.99,,,-99.99,,2013-06-01 18:01:00,
2013-06-01 13:12:00,70.0,64.0,-100.00,North,10,12.0,17.0,81,-99.99,,,-99.99,,2013-06-01 18:12:00,
2013-06-01 13:22:00,70.0,64.0,-100.00,North,10,12.0,17.0,81,-99.99,,,-99.99,,2013-06-01 18:22:00,
2013-06-01 13:32:00,70.0,64.0,-100.00,North,10,14.0,22.0,80,-99.99,,,-99.99,,2013-06-01 18:32:00,
2013-06-01 13:42:00,71.0,64.0,-100.00,North,0,14.0,22.0,79,-99.99,,,-99.99,,2013-06-01 18:42:00,
2013-06-01 13:52:00,71.0,64.0,-100.00,North,0,14.0,22.0,79,-99.99,,,-99.99,,2013-06-01 18:52:00,
2013-06-01 14:02:00,72.0,64.0,-100.00,North,10,16.0,21.0,77,-99.99,,,-99.99,,2013-06-01 19:02:00,
2013-06-01 14:11:00,71.0,64.0,-100.00,North,5,16.0,20.0,78,-99.99,,,-99.99,,2013-06-01 19:11:00,
2013-06-01 14:21:00,71.0,64.0,-100.00,North,5,16.0,20.0,78,-99.99,,,-99.99,,2013-06-01 19:21:00,
2013-06-01 14:32:00,71.0,64.0,-100.00,NNE,20,12.0,19.0,78,-99.99,,,-99.99,,2013-06-01 19:32:00,
2013-06-01 14:42:00,72.0,65.0,-100.00,North,0,15.0,21.0,77,-99.99,,,-99.99,,2013-06-01 19:42:00,
2013-06-01 14:52:00,72.0,65.0,-100.00,North,0,15.0,21.0,77,-99.99,,,-99.99,,2013-06-01 19:52:00,
2013-06-01 15:02:00,74.0,65.0,-100.00,North,0,14.0,21.0,74,-99.99,,,-99.99,,2013-06-01 20:02:00,
2013-06-01 15:12:00,73.0,64.0,-100.00,North,5,14.0,20.0,73,-99.99,,,-99.99,,2013-06-01 20:12:00,
2013-06-01 15:21:00,73.0,64.0,-100.00,North,5,14.0,20.0,73,-99.99,,,-99.99,,2013-06-01 20:21:00,
2013-06-01 15:32:00,73.0,65.0,-100.00,North,10,14.0,21.0,76,-99.99,,,-99.99,,2013-06-01 20:32:00,
2013-06-01 15:42:00,73.0,66.0,-100.00,North,10,10.0,21.0,77,-99.99,,,-99.99,,2013-06-01 20:42:00,
2013-06-01 15:52:00,73.0,66.0,-100.00,North,10,10.0,21.0,77,-99.99,,,-99.99,,2013-06-01 20:52:00,
2013-06-01 16:01:00,75.0,65.0,-100.00,NNE,15,12.0,21.0,71,-99.99,,,-99.99,,2013-06-01 21:01:00,
2013-06-01 16:11:00,74.0,64.0,-100.00,NNE,25,11.0,19.0,69,-99.99,,,-99.99,,2013-06-01 21:11:00,
2013-06-01 16:21:00,74.0,64.0,-100.00,NNE,25,11.0,19.0,69,-99.99,,,-99.99,,2013-06-01 21:21:00,
2013-06-01 16:33:00,74.0,64.0,-100.00,North,10,14.0,19.0,72,-99.99,,,-99.99,,2013-06-01 21:33:00,
2013-06-01 16:42:00,73.0,64.0,-100.00,North,5,14.0,23.0,73,-99.99,,,-99.99,,2013-06-01 21:42:00,
2013-06-01 16:53:00,73.0,64.0,-100.00,North,5,14.0,23.0,73,-99.99,,,-99.99,,2013-06-01 21:53:00,
2013-06-01 17:03:00,72.0,66.0,-100.00,North,10,16.0,24.0,81,-99.99,,,-99.99,,2013-06-01 22:03:00,
2013-06-01 17:12:00,65.0,60.0,-100.00,North,5,24.0,33.0,86,-99.99,,,-99.99,,2013-06-01 22:12:00,
2013-06-01 17:23:00,65.0,60.0,-100.00,North,5,24.0,33.0,86,-99.99,,,-99.99,,2013-06-01 22:23:00,
2013-06-01 17:33:00,61.0,57.0,-100.00,North,5,10.0,-999.0,87,-99.99,,,-99.99,,2013-06-01 22:33:00,
2013-06-01 17:42:00,63.0,60.0,-100.00,North,0,4.0,13.0,90,-99.99,,,-99.99,,2013-06-01 22:42:00,
2013-06-01 17:53:00,63.0,60.0,-100.00,North,0,4.0,13.0,90,-99.99,,,-99.99,,2013-06-01 22:53:00,
2013-06-01 18:02:00,65.0,63.0,-100.00,North,10,8.0,11.0,92,-99.99,,,-99.99,,2013-06-01 23:02:00,
2013-06-01 18:11:00,67.0,64.0,-100.00,North,10,9.0,16.0,92,-99.99,,,-99.99,,2013-06-01 23:11:00,
2013-06-01 18:22:00,67.0,64.0,-100.00,North,10,9.0,16.0,92,-99.99,,,-99.99,,2013-06-01 23:22:00,
2013-06-01 18:32:00,67.0,64.0,-100.00,North,0,11.0,16.0,89,-99.99,,,-99.99,,2013-06-01 23:32:00,
2013-06-01 18:42:00,69.0,64.0,-100.00,NNE,15,6.0,9.0,84,-99.99,,,-99.99,,2013-06-01 23:42:00,
2013-06-01 18:52:00,69.0,64.0,-100.00,NNE,15,6.0,9.0,84,-99.99,,,-99.99,,2013-06-01 23:52:00,
2013-06-01 19:02:00,69.0,65.0,-100.00,NNE,15,6.0,10.0,88,-99.99,,,-99.99,,2013-06-02 00:02:00,
2013-06-01 19:11:00,69.0,66.0,-100.00,NNE,20,6.0,10.0,88,-99.99,,,-99.99,,2013-06-02 00:11:00,
2013-06-01 19:21:00,69.0,66.0,-100.00,NNE,20,6.0,10.0,88,-99.99,,,-99.99,,2013-06-02 00:21:00,
2013-06-01 19:32:00,70.0,65.0,-100.00,NNE,20,7.0,10.0,86,-99.99,,,-99.99,,2013-06-02 00:32:00,
2013-06-01 19:42:00,70.0,59.0,-100.00,NNE,15,15.0,25.0,67,-99.99,,,-99.99,,2013-06-02 00:42:00,
2013-06-01 19:52:00,70.0,59.0,-100.00,NNE,15,15.0,25.0,67,-99.99,,,-99.99,,2013-06-02 00:52:00,
2013-06-01 20:01:00,69.0,58.0,-100.00,NNE,25,18.0,25.0,66,-99.99,,,-99.99,,2013-06-02 01:01:00,
2013-06-01 20:11:00,68.0,58.0,-100.00,North,5,16.0,24.0,69,-99.99,,,-99.99,,2013-06-02 01:11:00,
2013-06-01 20:21:00,68.0,58.0,-100.00,North,5,16.0,24.0,69,-99.99,,,-99.99,,2013-06-02 01:21:00,
2013-06-01 20:32:00,67.0,57.0,-100.00,North,5,12.0,21.0,71,-99.99,,,-99.99,,2013-06-02 01:32:00,
2013-06-01 20:42:00,66.0,57.0,-100.00,NNE,30,11.0,16.0,73,-99.99,,,-99.99,,2013-06-02 01:42:00,
2013-06-01 20:52:00,66.0,57.0,-100.00,NNE,30,11.0,16.0,73,-99.99,,,-99.99,,2013-06-02 01:52:00,
2013-06-01 21:01:00,66.0,57.0,-100.00,NNE,15,11.0,17.0,73,-99.99,,,-99.99,,2013-06-02 02:01:00,
2013-06-01 21:12:00,66.0,57.0,-100.00,North,10,11.0,17.0,73,-99.99,,,-99.99,,2013-06-02 02:12:00,
2013-06-01 21:21:00,66.0,57.0,-100.00,North,10,11.0,17.0,73,-99.99,,,-99.99,,2013-06-02 02:21:00,
2013-06-01 21:32:00,66.0,58.0,-100.00,North,0,13.0,20.0,75,-99.99,,,-99.99,,2013-06-02 02:32:00,
2013-06-01 21:41:00,65.0,58.0,-100.00,North,0,13.0,21.0,76,-99.99,,,-99.99,,2013-06-02 02:41:00,
2013-06-01 21:52:00,65.0,58.0,-100.00,North,0,13.0,21.0,76,-99.99,,,-99.99,,2013-06-02 02:52:00,
2013-06-01 22:02:00,65.0,58.0,-100.00,North,0,14.0,18.0,77,-99.99,,,-99.99,,2013-06-02 03:02:00,
2013-06-01 22:11:00,64.0,58.0,-100.00,NNE,20,11.0,16.0,80,-99.99,,,-99.99,,2013-06-02 03:11:00,
2013-06-01 22:21:00,64.0,58.0,-100.00,NNE,20,11.0,16.0,80,-99.99,,,-99.99,,2013-06-02 03:21:00,
2013-06-01 22:33:00,64.0,58.0,-100.00,North,0,12.0,17.0,81,-99.99,,,-99.99,,2013-06-02 03:33:00,
2013-06-01 22:43:00,63.0,58.0,-100.00,North,0,14.0,17.0,83,-99.99,,,-99.99,,2013-06-02 03:43:00,
2013-06-01 22:53:00,63.0,58.0,-100.00,North,0,14.0,17.0,83,-99.99,,,-99.99,,2013-06-02 03:53:00,
2013-06-01 23:02:00,63.0,-99.9,-100.00,NNE,25,11.0,16.0,86,-99.99,,,-99.99,,2013-06-02 04:02:00,
2013-06-01 23:13:00,62.0,59.0,-100.00,NNE,15,11.0,16.0,88,-99.99,,,-99.99,,2013-06-02 04:13:00,
2013-06-01 23:23:00,62.0,59.0,-100.00,NNE,15,11.0,16.0,88,-99.99,,,-99.99,,2013-06-02 04:23:00,
2013-06-01 23:33:00,62.0,59.0,-100.00,North,0,13.0,17.0,88,-99.99,,,-99.99,,2013-06-02 04:33:00,
2013-06-01 23:42:00,63.0,59.0,-100.00,North,10,11.0,20.0,88,-99.99,,,-99.99,,2013-06-02 04:42:00,
2013-06-01 23:53:00,63.0,59.0,-100.00,North,10,11.0,20.0,88,-99.99,,,-99.99,,2013-06-02 04:53:00,